AKDT,Max TemperatureF,Mean TemperatureF,Min TemperatureF,Max Dew PointF,MeanDew PointF,Min DewpointF,Max Humidity, Mean Humidity, Min Humidity, Max Sea Level PressureIn, Mean Sea Level PressureIn, Min Sea Level PressureIn, Max VisibilityMiles, Mean VisibilityMiles, Min VisibilityMiles, Max Wind SpeedMPH, Mean Wind SpeedMPH, Max Gust SpeedMPH,PrecipitationIn, CloudCover, Events, WindDirDegrees
2012-10-1,48,39,32,39,33,28,85,74,59,30.34,30.25,30.12,10,10,10,8,3,,0.00,6,,58
2012-10-2,50,48,46,42,37,35,80,66,57,30.34,30.25,30.17,10,10,7,14,6,21,0.03,7,Rain,118
2012-10-3,55,46,37,46,40,35,89,77,62,30.22,30.10,29.95,10,9,5,14,2,20,0.56,5,Rain,36
2012-10-4,60,56,52,46,43,41,74,64,59,30.17,30.00,29.92,10,10,10,13,6,24,0.01,6,Rain,156
2012-10-5,52,49,46,46,43,38,93,81,61,30.22,30.16,30.10,10,7,0,8,4,,0.45,6,Fog-Rain,149
2012-10-6,54,50,46,46,43,41,90,80,66,30.29,30.23,30.15,10,9,4,10,4,20,0.34,6,Rain,259
2012-10-7,57,52,46,49,46,43,90,80,69,30.28,30.26,30.24,10,10,7,7,3,,0.11,7,Rain,34
2012-10-8,53,46,39,46,43,37,93,85,74,30.26,30.21,30.18,10,8,1,12,4,,0.00,3,Fog,254
2012-10-9,48,46,44,45,42,39,93,84,76,30.19,30.14,30.09,10,10,4,8,3,,0.00,7,,74
2012-10-10,45,43,37,41,39,33,93,88,80,30.09,30.01,29.91,10,4,0,6,1,,0.00,6,Fog,99
2012-10-11,48,40,32,37,33,29,89,78,61,29.90,29.73,29.52,10,10,10,7,2,,0.00,1,,47
2012-10-12,48,38,28,33,29,26,89,71,52,29.51,29.26,29.08,10,10,10,8,2,,0.00,3,,56
2012-10-13,42,37,32,31,28,27,82,69,60,29.12,29.10,29.05,10,10,10,15,6,,0.00,8,,57
2012-10-14,43,40,37,37,35,31,93,82,76,29.08,28.95,28.86,10,9,5,7,2,,0.23,7,Rain,59
2012-10-15,43,39,35,36,32,28,89,81,70,29.11,29.05,28.92,10,8,2,16,7,24,0.08,7,Rain-Snow,248
2012-10-16,36,33,30,32,28,25,89,81,70,29.53,29.26,29.11,10,5,1,16,7,25,0.14,8,Snow,283
2012-10-17,35,32,28,27,25,23,82,77,70,29.75,29.70,29.55,10,10,10,8,3,,0.00,5,,44
2012-10-18,37,32,25,26,21,17,82,64,46,29.84,29.79,29.72,10,10,10,8,3,,0.00,2,,33
2012-10-19,39,30,21,22,19,16,82,63,43,30.12,29.98,29.85,10,10,10,9,2,,0.00,0,,74
2012-10-20,41,33,25,20,16,13,69,51,38,30.33,30.24,30.13,10,10,10,7,2,,0.00,0,,55
2012-10-21,37,29,21,19,15,11,68,54,42,30.37,30.33,30.29,10,10,10,13,5,,0.00,0,,51
2012-10-22,37,28,18,21,14,9,74,57,46,30.29,30.26,30.23,10,10,10,9,5,,0.00,1,,44
2012-10-23,35,26,18,18,13,9,71,60,46,30.28,30.25,30.23,10,10,10,9,3,,0.00,0,,47
2012-10-24,37,28,19,23,16,12,77,63,43,30.41,30.31,30.27,10,10,6,10,3,,0.00,0,,41
2012-10-25,39,29,19,27,18,12,75,63,49,30.49,30.46,30.42,10,10,10,10,3,,0.00,1,,53
2012-10-26,37,28,19,22,18,14,89,69,48,30.47,30.35,30.19,10,10,10,10,2,,0.00,0,,59
2012-10-27,39,28,19,20,15,11,74,61,43,30.19,30.07,30.01,10,10,6,8,2,,0.00,0,,49
2012-10-28,42,30,19,24,17,13,75,63,35,30.01,29.99,29.97,10,10,9,5,2,,0.00,0,,50
2012-10-29,41,32,24,30,26,18,85,72,61,30.02,29.88,29.80,10,10,10,24,6,33,0.00,2,,268
2012-10-30,37,32,27,31,20,4,92,66,33,29.79,29.72,29.62,10,6,0,16,6,25,0.08,8,Fog-Snow,33
2012-10-31,30,27,24,20,11,5,81,53,36,29.60,29.56,29.53,10,8,1,16,10,23,0.02,6,Snow,34